#timestamp,LO_Frequency,Hit,StdDev 
1597186815.8,286047010.3,N
1597186835.6,286047008.1,N
1597186855.4,286047012.1,Y
1597186875.3,286047000.2,P
1597186895.1,286046999.3,N
1597186915.9,286046995.1,N
1597186935.7,286046996.9,N
1597186955.6,286047004.2,N
1597186975.4,286046998.2,N
1597186995.2,286046998.5,N
1597187015.1,286047002.7,N
1597187016.0,286047002.7,N
1597187035.8,286047001.9,N
1597187055.6,286046996.6,N
1597187075.5,286046998.7,N
1597187095.3,286047000.0,N
1597187115.2,286047000.9,N
1597187135.9,286047001.7,N
1597187155.7,286047005.4,N
1597187175.6,286047004.3,N
1597187195.4,286047001.9,N
1597187215.3,286047005.8,N
1597187235.1,286047007.9,N
1597187236.0,286047007.9,N
1597187255.8,286047013.6,Y
1597187275.7,286047006.4,P
1597187295.5,286047007.5,P
1597187315.3,286047008.0,P
1597187335.2,286047015.3,Y
1597187355.0,286047006.1,P
1597187355.9,286047006.1,P
1597187375.8,286047007.5,P
1597187395.6,286047005.3,Y
1597187415.4,286046998.4,P
1597187435.3,286047001.7,N
1597187455.1,286047002.8,N
1597187475.9,286047000.9,N
1597187495.7,286047000.7,N
1597187515.5,286047004.0,N
1597187535.4,286047003.6,N
1597187555.2,286047003.9,N
1597187575.0,286047004.5,N
1597187576.0,286047004.5,N
1597187595.8,286047010.7,Y
1597187615.6,286047006.6,P
1597187635.5,286047008.2,P
1597187655.3,286047009.7,P
1597187675.1,286047009.9,Y
1597187695.9,286047002.2,P
1597187715.7,286047005.1,N
1597187735.6,286047004.1,N
1597187755.4,286047002.6,N
1597187775.2,286046999.8,N
1597187795.1,286047001.0,N
1597187796.0,286047001.0,N
1597187815.8,286047002.1,N
1597187835.7,286047001.8,N
1597187855.5,286047003.4,N
1597187875.3,286047007.7,Y
1597187895.2,286047009.1,P
1597187915.0,286047006.9,N
1597187915.9,286047006.9,N
1597187935.8,286047007.2,Y
1597187955.6,286047001.2,P
1597187975.4,286047001.3,N
1597187995.3,286047001.8,N
1597188015.1,286047002.3,N
1597188035.9,286047003.8,N
1597188055.7,286047004.7,N
1597188075.6,286047010.0,Y
1597188095.4,286047007.8,P
1597188115.2,286047012.1,P
1597188135.1,286047010.0,N
1597188136.0,286047010.0,N
1597188155.8,286047010.8,Y
1597188175.7,286047002.1,P
1597188195.5,286047003.4,N
1597188215.3,286047004.9,N
1597188235.2,286047010.4,Y
1597188255.0,286047006.7,P
1597188255.9,286047006.7,P
1597188275.8,286047009.2,P
1597188295.6,286047008.8,Y
1597188315.4,286047002.5,P
1597188335.3,286047002.8,N
1597188355.1,286046998.4,N
1597188375.9,286046997.8,N
1597188395.7,286046996.1,N
1597188415.5,286046995.2,N
1597188435.4,286046995.5,N
1597188455.2,286046995.5,N
1597188475.0,286046998.0,N
1597188475.9,286046998.0,N
1597188495.8,286046995.5,N
1597188515.6,286046995.5,N
1597188535.5,286046997.5,N
1597188555.3,286046995.4,N
1597188575.1,286046995.9,N
1597188595.9,286046992.0,N
1597188615.7,286046993.0,N
1597188635.6,286046992.3,N
1597188655.4,286046989.2,Y
1597188675.2,286046990.2,P
1597188695.1,286046988.8,P
1597188696.0,286046988.8,P
1597188715.8,286046987.3,Y
1597188735.7,286046993.5,P
1597188755.5,286046993.0,P
1597188775.3,286046990.9,P
1597188795.2,286046990.5,Y
1597188815.0,286047002.8,P
1597188815.9,286047002.8,N
1597188835.7,286047004.3,N
1597188855.6,286047004.2,N
1597188875.4,286047004.5,N
1597188895.3,286047005.5,N
1597188915.1,286047004.2,N
1597188935.8,286047005.4,N
1597188955.7,286047005.4,N
1597188975.5,286047005.1,N
1597188995.4,286047006.9,N
1597189015.2,286047011.9,Y
1597189035.0,286047004.6,P
1597189035.9,286047004.6,P
1597189055.8,286047007.0,P
1597189075.6,286047008.4,Y
1597189095.4,286047004.9,P
1597189115.3,286047006.4,P
1597189135.1,286047007.2,P
1597189155.9,286047005.4,Y
1597189175.7,286047001.2,P
1597189195.5,286046996.9,N
1597189215.4,286046997.0,N
1597189265.2,286046995.0,E
1597189275.2,286046999.2,N
1597189295.0,286047002.3,P
1597189295.9,286047002.3,N
1597189315.7,286046998.6,N
1597189335.6,286047000.6,N
1597189355.4,286047001.4,N
1597189375.3,286047004.8,Y
1597189395.1,286047003.6,P
1597189415.9,286047002.2,N
1597189435.3,286047002.0,N
1597189455.1,286047002.9,N
1597189475.9,286047005.7,Y
1597189495.7,286047002.2,P
1597189515.5,286047002.6,P
1597189535.4,286047002.6,P
1597189555.2,286047002.5,Y
1597189575.0,286046998.3,P
1597189576.0,286046998.3,N
1597189595.8,286046998.4,N
1597189615.6,286047001.1,N
1597189635.5,286047001.1,N
1597189655.3,286047000.3,N
1597189675.1,286047004.1,N
1597189695.9,286047007.1,Y
1597189715.7,286047009.1,P
1597189735.6,286047008.9,N
1597189755.4,286047006.6,N
1597189775.2,286047006.5,N
1597189795.1,286047006.8,N
1597189796.0,286047006.8,N
1597189815.8,286047008.5,Y
1597189835.7,286047000.5,P
1597189855.5,286046999.9,N
1597189875.3,286046999.7,N
1597189895.2,286046999.9,N
1597189915.0,286046998.9,N
1597189915.9,286046998.9,N
1597189935.7,286046997.7,N
1597189955.6,286046999.4,N
1597189975.4,286046998.5,N
1597189995.3,286047000.1,N
1597190015.1,286047000.0,N
1597190016.0,286047000.0,N
1597190035.8,286047000.1,N
1597190055.7,286047002.7,N
1597190075.5,286047002.0,N
1597190095.4,286047006.0,Y
1597190115.2,286047003.7,P
1597190135.0,286047001.8,N
1597190135.9,286047001.8,N
1597190155.8,286047002.3,N
1597190175.6,286046999.9,N
1597190195.4,286046998.4,N
1597190215.3,286046999.8,N
1597190235.1,286047002.0,N
1597190255.9,286047001.9,N
1597190275.7,286047001.9,N
1597190295.5,286047003.6,N
1597190315.4,286047002.0,N
1597190335.2,286047003.8,N
1597190355.0,286047005.7,Y
1597190356.0,286047005.7,P
1597190375.8,286047003.9,N
1597190395.6,286047005.7,P
